Погода в Мбабане

Эсватини     26°19′35″S   31°08′38″E
темп.,
°C
ветер,
м/с
пор.,
м/с
влажн.,
%
обл.,
%
осадки,
мм/ч
давл.,
гПа
погр.,
м
15 апреля, чт
чт1523:00+18з22485 0.0 102012
02:00+16ююз22575 0.0 102018
05:00+15зюз11726 0.0 102012
08:00+19ю11670 0.0 1021239
11:00+26всв22464 0.0 10191132
14:00+29всв34320 0.0 10141718
17:00+23всв35603 0.0 1015298
20:00+19сз327580 0.0 101737
16 апреля, пт
пт1623:00+17юз22815 0.0 101816
02:00+15ю22905 0.0 101937
05:00+15юз1194100 0.9 102018
08:00+15юв3798100 2.3 1023747
11:00+14юв3792100 0.4 1025852
14:00+14ююв2578100 0.6 1025748
17:00+14ю267895 0.1 1025971
20:00+11юв388479 0.1 1029828
17 апреля, сб
сб1723:00+10ю288365 0.1 1030633
02:00+9ююз248045 0.1 1029147
05:00+9зюз227665 0.0 102983
08:00+12ю14600 0.0 1029819
11:00+17вюв21450 0.0 10281259
14:00+19в33390 0.0 10241478
17:00+16всв34521 0.0 1024174
20:00+11ссз22670 0.0 102713
18 апреля, вс
вс1823:00+9сз11803 0.0 102711
02:00+8зсз22850 0.0 102620
05:00+8зсз22810 0.0 102622
08:00+15сз12620 0.0 1025208
11:00+23всв33420 0.0 10231044
14:00+23всв43430 0.0 10201108
17:00+19всв34580 0.0 1021140
20:00+14ссз22760 0.0 102416
19 апреля, пн
пн1923:00+13зсз22810 0.0 102418
02:00+12з228111 0.0 102325
05:00+12з22785 0.0 102220
08:00+18з11535 0.0 1022139
11:00+25вюв23332 0.0 10201066
14:00+26вюв45251 0.0 10181555
17:00+21св11481 0.0 101911
20:00+15зюз11582 0.0 102311